Mandrake 2A

operational
NORAD ID: 48907 Int'l Des: 2021-059 Owner: SDA/DARPA2 Country: US
LEOCIRCULARRETROGRADE

About Mandrake 2A

Description loading...

Live Position

Loading 3D Globe...

Upcoming Passes

Altitude History

Altitude vs Time

uPlot chart will show altitude changes over time

Two-Line Element Set

1 48907U 21059AE 26061.06980309 .00024315 00000-0 43027-3 0 9999
2 48907 97.7023 243.0408 0005080 35.3713 324.7874 15.50294687260509
Epoch: Mar 2, 2026 • Age: 31 hours

Current Status

Altitude 418.9 km
Velocity 7.67 km/s
Sub-Earth Point 43.42°N, 33.47°W
Launch Date Jun 30, 2021
Age 4.6 years
Type other

Technical Details

Classification Payload
Mass 23.00 kg
Dry Mass 23.00 kg
Total Mass 23.00 kg
Length 0.50 m
Diameter 0.50 m
Span 0.50 m
Shape Box + pan
Manufacturer ADIG
Bus Type Corvus-XL
Phase Status In Orbit
Owner/State SDA/DARPA2/US

Large Constellations

Loading constellations...